Location: Unspecified
(0.0000°N, 0.0000°E)
Time: 19:17:12
(UTC+00:00)

THORAD DELTA 1 DEB - Pass Details

Date: 23 February 2026
Orbit: 1451 x 1738 km, 101.5° (Epoch: 9 March)

Event Time Altitude Azimuth Distance (km) Brightness Sun altitude
Rises 19:28:29 0° 144° (SE) 4,655 ? -18.5°
Reaches altitude 10° 19:31:43 10° 135° (SE) 3,640 ? -19.3°
Maximum altitude 19:39:01 33° 74° (ENE) 2,262 ? -21.1°
Drops below altitude 10° 19:46:07 10° 14° (NNE) 3,560 ? -22.9°
Sets 19:49:13 0° 5° (N) 4,540 ? -23.6°
